contact:dominique.lefevre@mio.osupytheas.fr, maurice.libes@osupytheas.fr, didier.mallarino@osupytheas.fr
Project:EMSO http://www.emso-fr.org/EMSO-France
Depth: 2436.0 m
Title:EMSO Ligure Ouest : Data MII capteur OXYGEN
DateTime,Latitude,Longitude,Optode-Type,Optode_Serial,Oxygen,Saturation_Oxygen,Temperature
DateTime,Latitude,Longitude,Optode-Type,Optode_Serial,µmol.l-1,%,degC
2017-10-25T00:01:38,42.805,6.029,4330,1995,190.279,58.192,13.290
2017-10-25T00:04:38,42.805,6.029,4330,1995,189.913,58.081,13.290
2017-10-25T00:07:38,42.805,6.029,4330,1995,189.352,57.910,13.291
2017-10-25T00:10:38,42.805,6.029,4330,1995,189.496,57.956,13.292
2017-10-25T00:13:38,42.805,6.029,4330,1995,189.498,57.954,13.290
2017-10-25T00:16:38,42.805,6.029,4330,1995,189.532,57.963,13.289
2017-10-25T00:19:38,42.805,6.029,4330,1995,189.698,58.014,13.289
2017-10-25T00:22:38,42.805,6.029,4330,1995,189.928,58.084,13.289
2017-10-25T00:25:38,42.805,6.029,4330,1995,190.024,58.112,13.288
2017-10-25T00:28:38,42.805,6.029,4330,1995,190.135,58.147,13.289
2017-10-25T00:31:38,42.805,6.029,4330,1995,190.245,58.181,13.289
2017-10-25T00:34:38,42.805,6.029,4330,1995,190.328,58.208,13.290
2017-10-25T00:37:38,42.805,6.029,4330,1995,190.426,58.237,13.290
2017-10-25T00:40:38,42.805,6.029,4330,1995,190.537,58.270,13.289
2017-10-25T00:43:38,42.805,6.029,4330,1995,190.342,58.211,13.289
2017-10-25T00:46:38,42.805,6.029,4330,1995,190.072,58.128,13.289
2017-10-25T00:49:38,42.805,6.029,4330,1995,189.817,58.052,13.290
2017-10-25T00:52:38,42.805,6.029,4330,1995,189.451,57.940,13.291
2017-10-25T00:55:38,42.805,6.029,4330,1995,189.807,58.047,13.289
2017-10-25T00:58:38,42.805,6.029,4330,1995,190.392,58.227,13.290
2017-10-25T01:01:38,42.805,6.029,4330,1995,190.824,58.358,13.289
2017-10-25T01:04:38,42.805,6.029,4330,1995,191.414,58.539,13.290
2017-10-25T01:07:38,42.805,6.029,4330,1995,191.594,58.595,13.290
2017-10-25T01:10:38,42.805,6.029,4330,1995,191.881,58.682,13.289
2017-10-25T01:13:38,42.805,6.029,4330,1995,192.127,58.757,13.289
2017-10-25T01:16:38,42.805,6.029,4330,1995,191.722,58.633,13.290
2017-10-25T01:19:38,42.805,6.029,4330,1995,192.054,58.735,13.290
2017-10-25T01:22:38,42.805,6.029,4330,1995,192.056,58.736,13.290
2017-10-25T01:25:38,42.805,6.029,4330,1995,191.986,58.714,13.289
2017-10-25T01:28:38,42.805,6.029,4330,1995,192.056,58.736,13.290
2017-10-25T01:31:38,42.805,6.029,4330,1995,191.725,58.634,13.290
2017-10-25T01:34:38,42.805,6.029,4330,1995,191.261,58.493,13.290
2017-10-25T01:37:38,42.805,6.029,4330,1995,191.928,58.695,13.289
2017-10-25T01:40:38,42.805,6.029,4330,1995,191.988,58.715,13.289
2017-10-25T01:43:38,42.805,6.029,4330,1995,191.764,58.646,13.290
2017-10-25T01:46:38,42.805,6.029,4330,1995,191.498,58.564,13.289
2017-10-25T01:49:38,42.805,6.029,4330,1995,191.553,58.581,13.289
2017-10-25T01:52:38,42.805,6.029,4330,1995,191.469,58.555,13.289
2017-10-25T01:55:38,42.805,6.029,4330,1995,191.004,58.413,13.289
2017-10-25T01:58:38,42.805,6.029,4330,1995,191.562,58.583,13.288
2017-10-25T02:01:38,42.805,6.029,4330,1995,192.126,58.756,13.289
2017-10-25T02:04:38,42.805,6.029,4330,1995,192.062,58.737,13.290
2017-10-25T02:07:38,42.805,6.029,4330,1995,191.589,58.592,13.289
2017-10-25T02:10:38,42.805,6.029,4330,1995,190.830,58.362,13.290
2017-10-25T02:13:38,42.805,6.029,4330,1995,190.486,58.255,13.290
2017-10-25T02:16:38,42.805,6.029,4330,1995,190.666,58.311,13.290
2017-10-25T02:19:38,42.805,6.029,4330,1995,190.520,58.266,13.290
2017-10-25T02:22:38,42.805,6.029,4330,1995,190.779,58.345,13.290
2017-10-25T02:25:38,42.805,6.029,4330,1995,191.102,58.444,13.290
2017-10-25T02:28:38,42.805,6.029,4330,1995,190.707,58.322,13.289
2017-10-25T02:31:38,42.805,6.029,4330,1995,190.950,58.399,13.291
2017-10-25T02:34:38,42.805,6.029,4330,1995,190.529,58.269,13.290
2017-10-25T02:37:38,42.805,6.029,4330,1995,190.610,58.292,13.289
2017-10-25T02:40:38,42.805,6.029,4330,1995,190.734,58.332,13.290
2017-10-25T02:43:38,42.805,6.029,4330,1995,191.064,58.430,13.288
2017-10-25T02:46:38,42.805,6.029,4330,1995,191.499,58.563,13.288
2017-10-25T02:49:38,42.805,6.029,4330,1995,192.974,59.014,13.288
2017-10-25T02:52:38,42.805,6.029,4330,1995,193.206,59.085,13.288
2017-10-25T02:55:38,42.805,6.029,4330,1995,193.134,59.064,13.288
2017-10-25T02:58:38,42.805,6.029,4330,1995,193.211,59.087,13.288
2017-10-25T03:01:38,42.805,6.029,4330,1995,193.628,59.213,13.288
2017-10-25T03:04:38,42.805,6.029,4330,1995,193.632,59.215,13.288
2017-10-25T03:07:38,42.805,6.029,4330,1995,193.353,59.132,13.290
2017-10-25T03:10:38,42.805,6.029,4330,1995,193.877,59.291,13.288
2017-10-25T03:13:38,42.805,6.029,4330,1995,194.456,59.468,13.288
2017-10-25T03:16:38,42.805,6.029,4330,1995,194.472,59.473,13.289
2017-10-25T03:19:38,42.805,6.029,4330,1995,194.053,59.344,13.288
2017-10-25T03:22:38,42.805,6.029,4330,1995,194.255,59.405,13.287
2017-10-25T03:25:38,42.805,6.029,4330,1995,194.205,59.392,13.289
2017-10-25T03:28:38,42.805,6.029,4330,1995,194.469,59.472,13.288
2017-10-25T03:31:38,42.805,6.029,4330,1995,194.651,59.528,13.289
2017-10-25T03:34:38,42.805,6.029,4330,1995,194.240,59.401,13.288
2017-10-25T03:37:38,42.805,6.029,4330,1995,194.575,59.504,13.288
2017-10-25T03:40:38,42.805,6.029,4330,1995,194.446,59.468,13.291
2017-10-25T03:43:38,42.805,6.029,4330,1995,193.876,59.292,13.289
2017-10-25T03:46:38,42.805,6.029,4330,1995,193.263,59.105,13.290
2017-10-25T03:49:38,42.805,6.029,4330,1995,193.151,59.068,13.288
2017-10-25T03:52:38,42.805,6.029,4330,1995,193.984,59.323,13.288
2017-10-25T03:55:38,42.805,6.029,4330,1995,194.021,59.335,13.288
2017-10-25T03:58:38,42.805,6.029,4330,1995,193.837,59.278,13.288
2017-10-25T04:01:38,42.805,6.029,4330,1995,194.242,59.403,13.289
2017-10-25T04:04:38,42.805,6.029,4330,1995,194.340,59.432,13.288
2017-10-25T04:07:38,42.805,6.029,4330,1995,194.242,59.402,13.288
2017-10-25T04:10:38,42.805,6.029,4330,1995,194.078,59.352,13.288
2017-10-25T04:13:38,42.805,6.029,4330,1995,194.206,59.390,13.287
2017-10-25T04:16:38,42.805,6.029,4330,1995,194.157,59.377,13.289
2017-10-25T04:19:38,42.805,6.029,4330,1995,193.960,59.316,13.288
2017-10-25T04:22:38,42.805,6.029,4330,1995,193.991,59.326,13.289
2017-10-25T04:25:38,42.805,6.029,4330,1995,193.365,59.135,13.289
2017-10-25T04:28:38,42.805,6.029,4330,1995,193.090,59.050,13.288
2017-10-25T04:31:38,42.805,6.029,4330,1995,192.773,58.956,13.291
2017-10-25T04:34:38,42.805,6.029,4330,1995,192.315,58.816,13.291
2017-10-25T04:37:38,42.805,6.029,4330,1995,192.106,58.750,13.289
2017-10-25T04:40:38,42.805,6.029,4330,1995,191.745,58.641,13.290
2017-10-25T04:43:38,42.805,6.029,4330,1995,191.367,58.524,13.289
2017-10-25T04:46:38,42.805,6.029,4330,1995,191.298,58.503,13.289
2017-10-25T04:49:38,42.805,6.029,4330,1995,191.194,58.473,13.290
2017-10-25T04:52:38,42.805,6.029,4330,1995,191.212,58.479,13.291
2017-10-25T04:55:38,42.805,6.029,4330,1995,190.994,58.412,13.290
2017-10-25T04:58:38,42.805,6.029,4330,1995,190.898,58.383,13.291
2017-10-25T05:01:38,42.805,6.029,4330,1995,191.314,58.510,13.290
2017-10-25T05:04:38,42.805,6.029,4330,1995,191.675,58.619,13.290
2017-10-25T05:07:38,42.805,6.029,4330,1995,191.017,58.418,13.290
2017-10-25T05:10:38,42.805,6.029,4330,1995,190.847,58.366,13.290
2017-10-25T05:13:38,42.805,6.029,4330,1995,191.510,58.568,13.289
2017-10-25T05:16:38,42.805,6.029,4330,1995,191.785,58.653,13.290
2017-10-25T05:19:38,42.805,6.029,4330,1995,191.610,58.598,13.289
2017-10-25T05:22:38,42.805,6.029,4330,1995,191.959,58.707,13.290
2017-10-25T05:25:38,42.805,6.029,4330,1995,191.915,58.692,13.290
2017-10-25T05:28:38,42.805,6.029,4330,1995,191.828,58.666,13.290
2017-10-25T05:31:38,42.805,6.029,4330,1995,191.781,58.653,13.291
2017-10-25T05:34:38,42.805,6.029,4330,1995,191.513,58.569,13.289
2017-10-25T05:37:38,42.805,6.029,4330,1995,191.489,58.561,13.289
2017-10-25T05:40:38,42.805,6.029,4330,1995,191.533,58.575,13.289
2017-10-25T05:43:38,42.805,6.029,4330,1995,191.178,58.466,13.289
2017-10-25T05:46:38,42.805,6.029,4330,1995,190.939,58.393,13.289
2017-10-25T05:49:38,42.805,6.029,4330,1995,190.673,58.313,13.290
2017-10-25T05:52:38,42.805,6.029,4330,1995,190.846,58.364,13.288
2017-10-25T05:55:38,42.805,6.029,4330,1995,190.809,58.353,13.289
2017-10-25T05:58:38,42.805,6.029,4330,1995,191.725,58.634,13.290
2017-10-25T06:01:38,42.805,6.029,4330,1995,191.737,58.639,13.290
2017-10-25T06:04:38,42.805,6.029,4330,1995,191.382,58.531,13.291
2017-10-25T06:07:38,42.805,6.029,4330,1995,191.172,58.465,13.290
2017-10-25T06:10:38,42.805,6.029,4330,1995,190.866,58.373,13.290
2017-10-25T06:13:38,42.805,6.029,4330,1995,190.378,58.224,13.291
2017-10-25T06:16:38,42.805,6.029,4330,1995,190.397,58.229,13.291
2017-10-25T06:19:38,42.805,6.029,4330,1995,190.570,58.281,13.290
2017-10-25T06:22:38,42.805,6.029,4330,1995,190.221,58.179,13.293
2017-10-25T06:25:38,42.805,6.029,4330,1995,190.243,58.180,13.289
2017-10-25T06:28:38,42.805,6.029,4330,1995,190.435,58.239,13.289
2017-10-25T06:31:38,42.805,6.029,4330,1995,190.251,58.183,13.289
2017-10-25T06:34:38,42.805,6.029,4330,1995,190.170,58.159,13.290
2017-10-25T06:37:38,42.805,6.029,4330,1995,190.044,58.119,13.289
2017-10-25T06:40:38,42.805,6.029,4330,1995,189.987,58.102,13.289
2017-10-25T06:43:38,42.805,6.029,4330,1995,190.580,58.283,13.288
2017-10-25T06:46:38,42.805,6.029,4330,1995,190.676,58.313,13.289
2017-10-25T06:49:38,42.805,6.029,4330,1995,190.561,58.280,13.291
2017-10-25T06:52:38,42.805,6.029,4330,1995,190.545,58.274,13.290
2017-10-25T06:55:38,42.805,6.029,4330,1995,190.819,58.359,13.291
2017-10-25T06:58:38,42.805,6.029,4330,1995,190.844,58.367,13.292
2017-10-25T07:01:38,42.805,6.029,4330,1995,190.780,58.355,13.297
2017-10-25T07:04:38,42.805,6.029,4330,1995,190.848,58.368,13.291
2017-10-25T07:07:38,42.805,6.029,4330,1995,190.564,58.279,13.290
2017-10-25T07:10:38,42.805,6.029,4330,1995,190.309,58.202,13.290
2017-10-25T07:13:38,42.805,6.029,4330,1995,190.421,58.234,13.289
2017-10-25T07:16:38,42.805,6.029,4330,1995,190.677,58.313,13.289
2017-10-25T07:19:38,42.805,6.029,4330,1995,191.516,58.571,13.290
2017-10-25T07:22:38,42.805,6.029,4330,1995,191.736,58.638,13.290
2017-10-25T07:25:38,42.805,6.029,4330,1995,191.566,58.588,13.291
2017-10-25T07:28:38,42.805,6.029,4330,1995,191.051,58.429,13.290
2017-10-25T07:31:38,42.805,6.029,4330,1995,190.535,58.270,13.290
2017-10-25T07:34:38,42.805,6.029,4330,1995,191.177,58.467,13.290
2017-10-25T07:37:38,42.805,6.029,4330,1995,191.892,58.685,13.289
2017-10-25T07:40:38,42.805,6.029,4330,1995,191.984,58.713,13.289
2017-10-25T07:43:38,42.805,6.029,4330,1995,192.041,58.732,13.290
2017-10-25T07:46:38,42.805,6.029,4330,1995,192.053,58.735,13.290
2017-10-25T07:49:38,42.805,6.029,4330,1995,192.221,58.785,13.289
2017-10-25T07:52:38,42.805,6.029,4330,1995,192.267,58.800,13.289
2017-10-25T07:55:38,42.805,6.029,4330,1995,191.843,58.671,13.290
2017-10-25T07:58:38,42.805,6.029,4330,1995,192.294,58.807,13.289
2017-10-25T08:01:38,42.805,6.029,4330,1995,192.189,58.775,13.289
2017-10-25T08:04:38,42.805,6.029,4330,1995,192.488,58.866,13.288
2017-10-25T08:07:38,42.805,6.029,4330,1995,192.718,58.936,13.288
2017-10-25T08:10:38,42.805,6.029,4330,1995,192.882,58.985,13.288
2017-10-25T08:13:38,42.805,6.029,4330,1995,193.247,59.098,13.288
2017-10-25T08:16:38,42.805,6.029,4330,1995,193.300,59.114,13.288
2017-10-25T08:19:38,42.805,6.029,4330,1995,193.487,59.171,13.288
2017-10-25T08:22:38,42.805,6.029,4330,1995,193.136,59.064,13.288
2017-10-25T08:25:38,42.805,6.029,4330,1995,193.184,59.078,13.288
2017-10-25T08:28:38,42.805,6.029,4330,1995,193.025,59.030,13.289
2017-10-25T08:31:38,42.805,6.029,4330,1995,192.755,58.948,13.288
2017-10-25T08:34:38,42.805,6.029,4330,1995,192.184,58.774,13.289
2017-10-25T08:37:38,42.805,6.029,4330,1995,192.993,59.021,13.289
2017-10-25T08:40:38,42.805,6.029,4330,1995,193.142,59.066,13.288
2017-10-25T08:43:38,42.805,6.029,4330,1995,193.576,59.199,13.289
2017-10-25T08:46:38,42.805,6.029,4330,1995,193.034,59.033,13.288
2017-10-25T08:49:38,42.805,6.029,4330,1995,193.215,59.089,13.289
2017-10-25T08:52:38,42.805,6.029,4330,1995,193.084,59.049,13.289
2017-10-25T08:55:38,42.805,6.029,4330,1995,193.339,59.126,13.288
2017-10-25T08:58:38,42.805,6.029,4330,1995,193.333,59.124,13.288
2017-10-25T09:01:38,42.805,6.029,4330,1995,192.681,58.926,13.289
2017-10-25T09:04:38,42.805,6.029,4330,1995,192.160,58.768,13.290
2017-10-25T09:07:38,42.805,6.029,4330,1995,191.386,58.531,13.290
2017-10-25T09:10:38,42.805,6.029,4330,1995,190.800,58.350,13.288
2017-10-25T09:13:38,42.805,6.029,4330,1995,191.513,58.567,13.288
2017-10-25T09:16:38,42.805,6.029,4330,1995,192.279,58.801,13.288
2017-10-25T09:19:38,42.805,6.029,4330,1995,192.406,58.840,13.288
2017-10-25T09:22:38,42.805,6.029,4330,1995,192.369,58.829,13.288
2017-10-25T09:25:38,42.805,6.029,4330,1995,192.824,58.970,13.289
2017-10-25T09:28:38,42.805,6.029,4330,1995,192.677,58.925,13.289
2017-10-25T09:31:38,42.805,6.029,4330,1995,192.123,58.755,13.289
2017-10-25T09:34:38,42.805,6.029,4330,1995,191.430,58.544,13.290
2017-10-25T09:37:38,42.805,6.029,4330,1995,190.798,58.350,13.289
2017-10-25T09:40:38,42.805,6.029,4330,1995,191.075,58.434,13.289
2017-10-25T09:43:38,42.805,6.029,4330,1995,191.424,58.540,13.288
2017-10-25T09:46:38,42.805,6.029,4330,1995,191.778,58.650,13.289
2017-10-25T09:49:38,42.805,6.029,4330,1995,192.717,58.936,13.288
2017-10-25T09:52:38,42.805,6.029,4330,1995,192.662,58.919,13.288
2017-10-25T09:55:38,42.805,6.029,4330,1995,193.070,59.045,13.289
2017-10-25T09:58:38,42.805,6.029,4330,1995,193.059,59.041,13.288
2017-10-25T10:01:38,42.805,6.029,4330,1995,192.885,58.988,13.289
2017-10-25T10:04:38,42.805,6.029,4330,1995,192.858,58.979,13.288
2017-10-25T10:07:38,42.805,6.029,4330,1995,193.077,59.045,13.287
2017-10-25T10:10:38,42.805,6.029,4330,1995,193.042,59.035,13.288
2017-10-25T10:13:38,42.805,6.029,4330,1995,193.859,59.284,13.288
2017-10-25T10:16:38,42.805,6.029,4330,1995,193.949,59.312,13.287
2017-10-25T10:19:38,42.805,6.029,4330,1995,194.262,59.409,13.289
2017-10-25T10:22:38,42.805,6.029,4330,1995,193.884,59.292,13.288
2017-10-25T10:25:38,42.805,6.029,4330,1995,193.231,59.094,13.289
2017-10-25T10:28:38,42.805,6.029,4330,1995,192.851,58.977,13.288
2017-10-25T10:31:38,42.805,6.029,4330,1995,193.195,59.082,13.289
2017-10-25T10:34:38,42.805,6.029,4330,1995,193.341,59.126,13.288
2017-10-25T10:37:38,42.805,6.029,4330,1995,193.330,59.122,13.288
2017-10-25T10:40:38,42.805,6.029,4330,1995,193.634,59.216,13.288
2017-10-25T10:43:38,42.805,6.029,4330,1995,193.790,59.263,13.288
2017-10-25T10:46:38,42.805,6.029,4330,1995,193.745,59.251,13.289
2017-10-25T10:49:38,42.805,6.029,4330,1995,193.489,59.172,13.288
2017-10-25T10:52:38,42.805,6.029,4330,1995,193.173,59.076,13.289
2017-10-25T10:55:38,42.805,6.029,4330,1995,193.260,59.103,13.289
2017-10-25T10:58:38,42.805,6.029,4330,1995,193.463,59.166,13.289
2017-10-25T11:01:38,42.805,6.029,4330,1995,193.128,59.062,13.289
2017-10-25T11:04:38,42.805,6.029,4330,1995,193.254,59.100,13.288
2017-10-25T11:07:38,42.805,6.029,4330,1995,193.945,59.312,13.289
2017-10-25T11:10:38,42.805,6.029,4330,1995,194.054,59.344,13.288
2017-10-25T11:13:38,42.805,6.029,4330,1995,194.338,59.431,13.288
2017-10-25T11:16:38,42.805,6.029,4330,1995,194.469,59.474,13.290
2017-10-25T11:19:38,42.805,6.029,4330,1995,193.859,59.285,13.288
2017-10-25T11:22:38,42.805,6.029,4330,1995,194.065,59.347,13.287
2017-10-25T11:25:38,42.805,6.029,4330,1995,193.892,59.295,13.288
2017-10-25T11:28:38,42.805,6.029,4330,1995,193.686,59.232,13.288
2017-10-25T11:31:38,42.805,6.029,4330,1995,193.301,59.114,13.288
2017-10-25T11:34:38,42.805,6.029,4330,1995,193.656,59.223,13.288
2017-10-25T11:37:38,42.805,6.029,4330,1995,193.934,59.308,13.288
2017-10-25T11:40:38,42.805,6.029,4330,1995,194.275,59.412,13.288
2017-10-25T11:43:38,42.805,6.029,4330,1995,194.251,59.405,13.288
2017-10-25T11:46:38,42.805,6.029,4330,1995,194.191,59.387,13.289
2017-10-25T11:49:38,42.805,6.029,4330,1995,194.109,59.362,13.289
2017-10-25T11:52:38,42.805,6.029,4330,1995,193.694,59.235,13.289
2017-10-25T11:55:38,42.805,6.029,4330,1995,193.606,59.207,13.288
2017-10-25T11:58:38,42.805,6.029,4330,1995,193.407,59.148,13.289
2017-10-25T12:01:38,42.805,6.029,4330,1995,193.689,59.233,13.288
2017-10-25T12:04:38,42.805,6.029,4330,1995,193.585,59.201,13.288
2017-10-25T12:07:38,42.805,6.029,4330,1995,193.533,59.185,13.288
2017-10-25T12:10:38,42.805,6.029,4330,1995,193.641,59.219,13.289
2017-10-25T12:13:38,42.805,6.029,4330,1995,193.302,59.115,13.288
2017-10-25T12:16:38,42.805,6.029,4330,1995,193.100,59.052,13.288
2017-10-25T12:19:38,42.805,6.029,4330,1995,192.872,58.983,13.288
2017-10-25T12:22:38,42.805,6.029,4330,1995,193.096,59.051,13.288
2017-10-25T12:25:38,42.805,6.029,4330,1995,193.858,59.284,13.287
2017-10-25T12:28:38,42.805,6.029,4330,1995,193.977,59.321,13.288
2017-10-25T12:31:38,42.805,6.029,4330,1995,193.464,59.164,13.288
2017-10-25T12:34:38,42.805,6.029,4330,1995,193.122,59.060,13.289
2017-10-25T12:37:38,42.805,6.029,4330,1995,193.226,59.091,13.288
2017-10-25T12:40:38,42.805,6.029,4330,1995,193.583,59.201,13.288
2017-10-25T12:43:38,42.805,6.029,4330,1995,194.202,59.389,13.288
2017-10-25T12:46:38,42.805,6.029,4330,1995,193.924,59.305,13.288
2017-10-25T12:49:38,42.805,6.029,4330,1995,193.511,59.178,13.288
2017-10-25T12:52:38,42.805,6.029,4330,1995,193.253,59.100,13.288
2017-10-25T12:55:38,42.805,6.029,4330,1995,193.721,59.243,13.289
2017-10-25T12:58:38,42.805,6.029,4330,1995,193.518,59.182,13.289
2017-10-25T13:01:38,42.805,6.029,4330,1995,193.872,59.288,13.288
2017-10-25T13:04:38,42.805,6.029,4330,1995,193.779,59.261,13.288
2017-10-25T13:07:38,42.805,6.029,4330,1995,193.789,59.263,13.288
2017-10-25T13:10:38,42.805,6.029,4330,1995,193.447,59.159,13.288
2017-10-25T13:13:38,42.805,6.029,4330,1995,193.139,59.064,13.288
2017-10-25T13:16:38,42.805,6.029,4330,1995,193.583,59.199,13.287
2017-10-25T13:19:38,42.805,6.029,4330,1995,193.630,59.214,13.287
2017-10-25T13:22:38,42.805,6.029,4330,1995,193.776,59.258,13.287
2017-10-25T13:25:38,42.805,6.029,4330,1995,193.687,59.232,13.288
2017-10-25T13:28:38,42.805,6.029,4330,1995,194.002,59.329,13.288
2017-10-25T13:31:38,42.805,6.029,4330,1995,193.975,59.320,13.288
2017-10-25T13:34:38,42.805,6.029,4330,1995,193.605,59.207,13.288
2017-10-25T13:37:38,42.805,6.029,4330,1995,193.973,59.320,13.289
2017-10-25T13:40:38,42.805,6.029,4330,1995,193.955,59.315,13.289
2017-10-25T13:43:38,42.805,6.029,4330,1995,193.685,59.231,13.288
2017-10-25T13:46:38,42.805,6.029,4330,1995,193.397,59.144,13.289
2017-10-25T13:49:38,42.805,6.029,4330,1995,193.451,59.161,13.288
2017-10-25T13:52:38,42.805,6.029,4330,1995,193.747,59.251,13.288
2017-10-25T13:55:38,42.805,6.029,4330,1995,193.974,59.320,13.288
2017-10-25T13:58:38,42.805,6.029,4330,1995,193.513,59.179,13.288
2017-10-25T14:01:38,42.805,6.029,4330,1995,193.594,59.204,13.288
2017-10-25T14:04:38,42.805,6.029,4330,1995,193.901,59.297,13.287
2017-10-25T14:07:38,42.805,6.029,4330,1995,193.878,59.290,13.288
2017-10-25T14:10:38,42.805,6.029,4330,1995,193.728,59.245,13.289
2017-10-25T14:13:38,42.805,6.029,4330,1995,193.014,59.027,13.289
2017-10-25T14:16:38,42.805,6.029,4330,1995,193.065,59.042,13.288
2017-10-25T14:19:38,42.805,6.029,4330,1995,192.666,58.921,13.289
2017-10-25T14:22:38,42.805,6.029,4330,1995,193.345,59.128,13.288
2017-10-25T14:25:38,42.805,6.029,4330,1995,193.433,59.153,13.287
2017-10-25T14:28:38,42.805,6.029,4330,1995,193.352,59.129,13.288
2017-10-25T14:31:38,42.805,6.029,4330,1995,193.130,59.061,13.287
2017-10-25T14:34:38,42.805,6.029,4330,1995,193.340,59.127,13.289
2017-10-25T14:37:38,42.805,6.029,4330,1995,193.706,59.238,13.288
2017-10-25T14:40:38,42.805,6.029,4330,1995,193.787,59.262,13.287
2017-10-25T14:43:38,42.805,6.029,4330,1995,194.236,59.400,13.288
2017-10-25T14:46:38,42.805,6.029,4330,1995,194.416,59.453,13.287
2017-10-25T14:49:38,42.805,6.029,4330,1995,194.297,59.418,13.288
2017-10-25T14:52:38,42.805,6.029,4330,1995,194.556,59.498,13.288
2017-10-25T14:55:38,42.805,6.029,4330,1995,194.543,59.492,13.286
2017-10-25T14:58:38,42.805,6.029,4330,1995,195.192,59.693,13.288
2017-10-25T15:01:38,42.805,6.029,4330,1995,195.859,59.895,13.287
2017-10-25T15:04:38,42.805,6.029,4330,1995,195.951,59.922,13.286
2017-10-25T15:07:38,42.805,6.029,4330,1995,196.062,59.957,13.287
2017-10-25T15:10:38,42.805,6.029,4330,1995,195.604,59.817,13.287
2017-10-25T15:13:38,42.805,6.029,4330,1995,195.311,59.727,13.286
2017-10-25T15:16:38,42.805,6.029,4330,1995,195.354,59.741,13.287
2017-10-25T15:19:38,42.805,6.029,4330,1995,195.778,59.872,13.288
2017-10-25T15:22:38,42.805,6.029,4330,1995,195.250,59.711,13.288
2017-10-25T15:25:38,42.805,6.029,4330,1995,195.039,59.645,13.287
2017-10-25T15:28:38,42.805,6.029,4330,1995,194.679,59.537,13.289
2017-10-25T15:31:38,42.805,6.029,4330,1995,194.194,59.389,13.289
2017-10-25T15:34:38,42.805,6.029,4330,1995,194.198,59.389,13.289
2017-10-25T15:37:38,42.805,6.029,4330,1995,193.942,59.311,13.289
2017-10-25T15:40:38,42.805,6.029,4330,1995,193.934,59.307,13.288
2017-10-25T15:43:38,42.805,6.029,4330,1995,194.981,59.628,13.288
2017-10-25T15:46:38,42.805,6.029,4330,1995,194.518,59.489,13.290
2017-10-25T15:49:38,42.805,6.029,4330,1995,194.109,59.362,13.289
2017-10-25T15:52:38,42.805,6.029,4330,1995,193.728,59.246,13.289
2017-10-25T15:55:38,42.805,6.029,4330,1995,193.587,59.203,13.289
2017-10-25T15:58:38,42.805,6.029,4330,1995,193.309,59.118,13.289
2017-10-25T16:01:38,42.805,6.029,4330,1995,193.154,59.070,13.289
2017-10-25T16:04:38,42.805,6.029,4330,1995,194.695,59.540,13.288
2017-10-25T16:07:38,42.805,6.029,4330,1995,195.214,59.698,13.287
2017-10-25T16:10:38,42.805,6.029,4330,1995,195.482,59.780,13.287
2017-10-25T16:13:38,42.805,6.029,4330,1995,195.268,59.716,13.288
2017-10-25T16:16:38,42.805,6.029,4330,1995,194.890,59.600,13.287
2017-10-25T16:19:38,42.805,6.029,4330,1995,194.764,59.562,13.288
2017-10-25T16:22:38,42.805,6.029,4330,1995,194.129,59.371,13.291
2017-10-25T16:25:38,42.805,6.029,4330,1995,193.641,59.220,13.290
2017-10-25T16:28:38,42.805,6.029,4330,1995,193.231,59.094,13.289
2017-10-25T16:31:38,42.805,6.029,4330,1995,193.332,59.125,13.289
2017-10-25T16:34:38,42.805,6.029,4330,1995,193.548,59.191,13.289
2017-10-25T16:37:38,42.805,6.029,4330,1995,194.385,59.447,13.289
2017-10-25T16:40:38,42.805,6.029,4330,1995,194.473,59.473,13.288
2017-10-25T16:43:38,42.805,6.029,4330,1995,193.948,59.315,13.290
2017-10-25T16:46:38,42.805,6.029,4330,1995,193.492,59.173,13.288
2017-10-25T16:49:38,42.805,6.029,4330,1995,193.565,59.195,13.288
2017-10-25T16:52:38,42.805,6.029,4330,1995,193.099,59.054,13.290
2017-10-25T16:55:38,42.805,6.029,4330,1995,192.708,58.935,13.290
2017-10-25T16:58:38,42.805,6.029,4330,1995,192.481,58.866,13.290
2017-10-25T17:01:38,42.805,6.029,4330,1995,192.445,58.853,13.289
2017-10-25T17:04:38,42.805,6.029,4330,1995,192.114,58.753,13.290
2017-10-25T17:07:38,42.805,6.029,4330,1995,191.711,58.630,13.290
2017-10-25T17:10:38,42.805,6.029,4330,1995,192.001,58.718,13.289
2017-10-25T17:13:38,42.805,6.029,4330,1995,191.903,58.690,13.290
2017-10-25T17:16:38,42.805,6.029,4330,1995,191.351,58.520,13.290
2017-10-25T17:19:38,42.805,6.029,4330,1995,191.601,58.598,13.291
2017-10-25T17:22:38,42.805,6.029,4330,1995,191.866,58.678,13.290
2017-10-25T17:25:38,42.805,6.029,4330,1995,191.994,58.717,13.290
2017-10-25T17:28:38,42.805,6.029,4330,1995,192.298,58.810,13.290
2017-10-25T17:31:38,42.805,6.029,4330,1995,192.243,58.794,13.291
2017-10-25T17:34:38,42.805,6.029,4330,1995,191.909,58.692,13.291
2017-10-25T17:37:38,42.805,6.029,4330,1995,191.431,58.546,13.291
2017-10-25T17:40:38,42.805,6.029,4330,1995,190.864,58.375,13.292
2017-10-25T17:43:38,42.805,6.029,4330,1995,190.553,58.281,13.293
2017-10-25T17:46:38,42.805,6.029,4330,1995,190.193,58.167,13.291
2017-10-25T17:49:38,42.805,6.029,4330,1995,189.868,58.066,13.290
2017-10-25T17:52:38,42.805,6.029,4330,1995,189.767,58.035,13.289
2017-10-25T17:55:38,42.805,6.029,4330,1995,190.068,58.125,13.288
2017-10-25T17:58:38,42.805,6.029,4330,1995,190.858,58.367,13.288
2017-10-25T18:01:38,42.805,6.029,4330,1995,191.451,58.549,13.288
2017-10-25T18:04:38,42.805,6.029,4330,1995,191.882,58.680,13.288
2017-10-25T18:07:38,42.805,6.029,4330,1995,192.140,58.760,13.288